Regional Weather Roundup
Issued by NWS Newport/Morehead, NC

Current Version | Previous Version | Graphics & Text | Print | Product List | Glossary On
Versions: 1 2 3 4 5 6 7 8 9 10 11 12 13 14 15 16 17 18 19 20 21 22 23 24 25 26 27 28 29 30 31 32 33 34 35 36 37 38 39 40 41 42 43 44 45 46 47 48 49 50
000 ASUS42 KMHX 030812 RWRMHX WEATHER ROUNDUP FOR EASTERN NORTH CAROLINA NATIONAL WEATHER SERVICE NEWPORT/MOREHEAD CITY NC 300 AM EST TUE MAR 03 2015 NOTE: "FAIR" INDICATES FEW OR NO CLOUDS BELOW 12,000 FEET WITH NO SIGNIFICANT WEATHER AND/OR OBSTRUCTIONS TO VISIBILITY NCZ015>017-031-032-045>047-102-103-030900- NORTH COAST CITY SKY/WX TMP DP RH WIND PRES REMARKS EDENTON MOCLDY 33 24 70 NE3 30.39F ELIZABETH CITY MOCLDY 35 22 58 NE10 30.40R KITTY HAWK PTSUNNY 37 28 70 N8 30.36S MANTEO MOCLDY 37 27 65 N10 30.38R $$ NCZ045>047-081-094-103-104-030900- CENTRAL COAST CITY SKY/WX TMP DP RH WIND PRES REMARKS FRISCO PTCLDY 39 31 72 NE8 30.35F SWANQUARTER N/A 36 N/A N/A NE3 30.33S $$ NCZ095-097-098-100-101-030900- SOUTHERN COAST CITY SKY/WX TMP DP RH WIND PRES REMARKS BEAUFORT MOCLDY 37 30 75 NE7 30.36F CEDAR ISLAND N/A 39 N/A N/A N12 30.39S JACKSONVILLE CLEAR 39 28 64 NE7 30.35F PINEY ISLAND N/A N/A N/A N/A MISG 30.37S WILMINGTON CLOUDY 43 28 55 NE10 30.34S $$ NCZ011>013-027>030-043-044-078>080-089-090>093-098-030900- COASTAL PLAIN CITY SKY/WX TMP DP RH WIND PRES REMARKS AHOSKIE PTCLDY 30 24 81 CALM 30.40F CLINTON CLOUDY 40 31 69 E3 30.35F ELIZABETHTOWN CLOUDY 41 32 70 E6 30.33F GOLDSBORO CLOUDY 39 37 92 E8 30.35F GREENVILLE PTCLDY 34 30 86 CALM 30.38F HAVELOCK MOCLDY 39 26 59 NE8 30.38F KENANSVILLE MOCLDY 39 28 66 E6 30.37F KINSTON MOCLDY 38 28 65 NE3 30.39R NEW BERN MOCLDY 36 29 75 NE3 30.38F RICHLANDS CLOUDY 37 27 65 NE8 30.36F ROCKY MOUNT MOCLDY 37 29 72 CALM 30.38F WASHINGTON PTCLDY 32 29 87 CALM 30.39S WHITEVILLE CLOUDY 42 32 67 NE10 30.32F $$ AMZ130-135-150-152-154-156-158-170-250-252-270-ANZ085-086-088-633-658-670-030900- MARINE OBSERVATIONS STATION/POSITION TIME TEMP WIND PRES WAVE SWELL AIR SEA DIR/SP/G HT/PER HT/PER (UTC) (F) (DEG/KT/KT) (MB) (FT/S) (FT/S) CHESAPEAKE LIGHT 0700 35 20/ 14/ 16 1030.0 64 E VA BEACH 0750 42 58 20/ 16/ 21 1027.8 6/ 7 DUCK 0700 20/ 14/ 15 N/A 2 E DUCK 0711 34 N/A 3/ 5 10 NE DUCK 0722 37 N/A 4/ 5 OREGON INLET 0700 20/ 12/ 16 N/A HATTERAS CG 0700 10/ 12/ 13 N/A CAPE LOOKOUT 0800 45 30/ 17/ 22 1027.3 BEAUFORT LAB 0700 30/ 4/ 7 N/A 27 SE WRIGHTSVLE NOT AVBL 5 SE WRIGHTSVLE NOT AVBL 225 S CAPE HAT 0750 66 73 40/ 16/ 21 1023.7 6/ 8 3/ 8 41 SE CHARLESTON 0750 66 67 90/ 14/ 16 1022.6 4/ 7 3/ 7 $$

USA.gov is the U.S. government's official web portal to all federal, state and local government web resources and services.